[[{"header":{"parameterUnit":"m.s-1","parameterCategory":1,"la1":30.2992,"la2":30.254,"lo1":-89.0895,"lo2":-89.0443,"dy":0.0025,"dx":0.0025,"nx":19,"ny":19,"refTime":"2026-05-01T21:00:00:Z","depth":0,"parameterNumber":2,"parameterNumberName":"U-component_of_WINDS"},"data":[0,0,0,0.0337,0.0336,0.0316,0.0316,0.0282,0.0281,0,0,0,0,0,0,0,0,0,0,0,0.0339,0.0338,0.0337,0.0336,0.0316,0.0316,0.0282,0.0281,0,0,0,0,0,0,0,0,0,0,0,0.0339,0.0338,0.0338,0.0336,0.0316,0.0316,0.0282,0.03,0,0,0,0,0,0,0,0,0,0,0.0321,0.0319,0.0339,0.0338,0.0336,0.0316,0.0316,0.0301,0.0299,0.0288,0,0.0278,0,0.0279,0.0279,0.0279,0,0,0,0.0339,0.032,0.0319,0.0338,0.0336,0.0316,0.0326,0.03,0.0297,0.0285,0.0277,0.0276,0.0279,0.0278,0.0278,0.021,0.0209,0,0,0.034,0.0332,0.0321,0.0317,0.0321,0.0326,0.0325,0.0298,0.0289,0.0277,0.0276,0.0278,0.0278,0.0278,0.021,0.021,0,0,0,0.0341,0.0333,0.0332,0.0319,0.0316,0.0326,0.0324,0.029,0.0291,0.0275,0.0278,0.0278,0.0277,0.0211,0.021,0.018,0,0,0,0.0342,0.0334,0.0333,0.0328,0.0316,0.0303,0.0317,0.0293,0.029,0.0278,0.0278,0.0277,0.0211,0.021,0.0182,0.0167,0,0,0,0.0341,0.0334,0.033,0.0327,0.0319,0.0303,0.0303,0.0292,0.0291,0.0279,0.0277,0.0211,0.021,0.0184,0.017,0.0147,0,0,0,0.0338,0.0302,0.0329,0.0291,0.0319,0.0286,0.0303,0.0279,0.0264,0.0278,0.0211,0.021,0.0184,0.0171,0.0148,0.0125,0.0115,0,0,0.0289,0.0296,0.0274,0.0298,0.0259,0.029,0.0246,0.024,0.0245,0.0221,0.0219,0.0182,0.017,0.0147,0.0063,0.0055,0,0,0,0.0256,0.024,0.0232,0.0219,0.0215,0.0209,0.0211,0.0209,0.019,0.0231,0.0168,0.0161,0.0148,0.0137,0.013,0.0119,0.0205,0.0205,0.0205,0.0174,0.0185,0.0149,0.0158,0.0146,0.0149,0.014,0.0137,0.015,0.0135,0.0127,0.0076,0.0063,0.0057,0.0046,0.0117,0.0117,0.0117,0.0117,0.0102,0.0081,0.0102,0.0076,0.0087,0.0065,0.0068,0.0078,0.0058,0.0082,0.0071,0.0094,0.0048,0.0039,0.0115,0.0115,0.0115,0.0116,0.0116,0.0048,0.004,0.004,0.0024,0.001,0.0021,0.0002,0.0013,0.0023,0.0013,0.0006,0.0006,0.0007,0.0009,0.0009,0.0009,0.0009,0.0008,0.0008,-0.0009,-0.0008,-0.0025,-0.003,-0.0036,-0.0042,-0.0036,-0.0042,-0.0045,-0.0036,-0.0036,-0.0022,0.0043,0.0058,0.0005,0.0006,0.0006,0.0007,0.0007,-0.0089,-0.0068,-0.0094,-0.01,-0.0104,-0.0118,-0.0101,-0.0113,-0.0116,-0.0126,-0.0107,-0.0061,-0.0054,-0.0048,-0.0036,-0.0109,-0.0109,-0.0109,-0.0109,-0.0136,-0.0129,-0.0152,-0.0162,-0.0169,-0.0156,-0.0186,-0.0181,-0.0174,-0.0174,-0.0161,-0.0143,-0.0138,-0.0133,-0.0126,-0.0114,-0.0206,-0.0206,-0.0206,-0.0184,-0.0177,-0.0206,-0.0196,-0.0197,-0.0199,-0.0226,-0.0238,-0.0225,-0.021,-0.0175,-0.0171,-0.0141,-0.0132,-0.0119,-0.0108,-0.0086,0,0]},{"header":{"parameterUnit":"m.s-1","parameterCategory":1,"la1":30.2992,"la2":30.254,"lo1":-89.0895,"lo2":-89.0443,"dy":0.0025,"dx":0.0025,"nx":19,"ny":19,"refTime":"2026-05-01T21:00:00:Z","depth":0,"parameterNumber":3,"parameterNumberName":"V-component_of_WINDS"},"data":[0,0,0,-7.4883,-7.4888,-7.5139,-7.514,-7.5474,-7.5477,0,0,0,0,0,0,0,0,0,0,0,-7.482,-7.4823,-7.4882,-7.4889,-7.5139,-7.514,-7.5473,-7.5477,0,0,0,0,0,0,0,0,0,0,0,-7.4819,-7.4822,-7.4826,-7.489,-7.5139,-7.514,-7.5473,-7.5278,0,0,0,0,0,0,0,0,0,0,-7.5032,-7.4987,-7.4821,-7.4826,-7.4891,-7.5138,-7.514,-7.5268,-7.529,-7.5368,0,-7.5442,0,-7.5465,-7.5501,-7.5502,0,0,0,-7.488,-7.4969,-7.5026,-7.4826,-7.4894,-7.5138,-7.5023,-7.528,-7.5305,-7.5397,-7.5447,-7.5458,-7.5471,-7.5503,-7.5505,-7.5988,-7.599,0,0,-7.4866,-7.4871,-7.5009,-7.5042,-7.5008,-7.5015,-7.5031,-7.5295,-7.5349,-7.5448,-7.5466,-7.5476,-7.5505,-7.5508,-7.5985,-7.5989,0,0,0,-7.4832,-7.4862,-7.4912,-7.5029,-7.5073,-7.5023,-7.5041,-7.5337,-7.5353,-7.547,-7.548,-7.5507,-7.5512,-7.5982,-7.5987,-7.6126,0,0,0,-7.4823,-7.4842,-7.4906,-7.4912,-7.5069,-7.5209,-7.5078,-7.5335,-7.5365,-7.5478,-7.5507,-7.5515,-7.5979,-7.5985,-7.6116,-7.6191,0,0,0,-7.48,-7.4839,-7.488,-7.4912,-7.502,-7.5205,-7.5236,-7.5341,-7.5372,-7.5502,-7.5516,-7.5977,-7.5984,-7.6107,-7.6176,-7.632,0,0,0,-7.4775,-7.4999,-7.4882,-7.5135,-7.5018,-7.529,-7.5234,-7.5436,-7.5564,-7.5509,-7.598,-7.5986,-7.6104,-7.6167,-7.631,-7.6443,-7.6499,0,0,-7.506,-7.5034,-7.5182,-7.5085,-7.5379,-7.5251,-7.5565,-7.5676,-7.5683,-7.5885,-7.5897,-7.6119,-7.6175,-7.6318,-7.6807,-7.6852,0,0,0,-7.5274,-7.5381,-7.5458,-7.5582,-7.5674,-7.5758,-7.5821,-7.5862,-7.6034,-7.5789,-7.621,-7.6243,-7.6326,-7.6389,-7.6427,-7.6498,-7.6015,-7.6015,-7.6014,-7.5686,-7.5683,-7.5929,-7.5956,-7.6076,-7.6139,-7.6236,-7.6301,-7.6262,-7.6361,-7.6422,-7.6719,-7.6793,-7.6822,-7.6896,-7.6491,-7.6491,-7.6492,-7.6492,-7.6103,-7.6254,-7.6198,-7.6416,-7.6411,-7.6593,-7.6661,-7.6627,-7.6794,-7.6674,-7.6747,-7.6616,-7.6871,-7.6935,-7.6503,-7.6501,-7.65,-7.6499,-7.6498,-7.6373,-7.6445,-7.6492,-7.667,-7.6807,-7.6825,-7.6989,-7.6977,-7.6967,-7.704,-7.7102,-7.71,-7.7096,-7.707,-7.7072,-7.7073,-7.7073,-7.7074,-7.7075,-7.6635,-7.6683,-7.6824,-7.694,-7.7017,-7.7117,-7.7181,-7.7256,-7.7336,-7.7314,-7.7315,-7.7265,-7.6896,-7.6804,-7.7091,-7.7088,-7.7086,-7.7084,-7.7083,-7.706,-7.6962,-7.718,-7.7258,-7.7392,-7.7528,-7.7511,-7.7664,-7.7724,-7.7805,-7.7739,-7.7468,-7.7439,-7.7409,-7.7333,-7.7739,-7.7739,-7.774,-7.774,-7.7288,-7.7273,-7.7492,-7.7617,-7.7738,-7.7744,-7.7988,-7.8039,-7.8075,-7.8112,-7.8051,-7.7948,-7.7918,-7.7906,-7.7866,-7.7794,-7.8309,-7.831,-7.831,-7.755,-7.7545,-7.7757,-7.7793,-7.7897,-7.7985,-7.8213,-7.8356,-7.8377,-7.8333,-7.814,-7.8116,-7.7949,-7.7896,-7.7849,-7.7785,-7.7654,0,0]}]]